Regional Weather Roundup
Issued by NWS Wakefield, VA

Home | Current Version | Previous Version | Text Only | Print | Product List | Glossary Off
Versions: 1 2 3 4 5 6 7 8 9 10 11 12 13 14 15 16 17 18 19 20 21 22 23 24 25 26 27 28 29 30 31 32 33 34 35 36 37 38 39 40 41 42 43 44 45 46 47 48 49 50

026
ASUS41 KAKQ 011315
RWRAKQ

REGIONAL WEATHER ROUNDUP
NATIONAL WEATHER SERVICE WAKEFIELD VA
900 AM EDT SUN MAY 01 2016

Note: "fair" indicates few or no clouds below 12,000 feet with no
significant weather and/or obstructions to visibility. * = Denotes
station may not report precipitation (e.g., rain,snow,etc.),
thunder or fog.

VAZ042-051-052>054-056-011400-
NORTHERN VIRGINIA

CITY           SKY/WX    TMP DP  RH WIND       PRES   REMARKS
WASH NATIONAL  LGT RAIN  53  51  93 S9        30.13S
DULLES         LGT RAIN  52  50  93 S8        30.11S FOG
FORT BELVOIR   LGT RAIN  54  52  94 SE6       30.12F
QUANTICO       LGT RAIN  55  52  89 S14       30.12F
FREDERICKSBRG* LGT RAIN  53  53 100 SE8       30.11F
STAFFORD*      LGT RAIN  52  51  95 SE6       30.15F
WARRENTON      LGT RAIN  54  49  83 S5        30.11R
CULPEPER*      CLOUDY    53  53  98 S3        30.13R
MANASSAS*      LGT RAIN  54  52  94 S7        30.11S
LEESBURG*      LGT RAIN  54  54 100 S8        30.11S
WINCHESTER     RAIN      54  52  94 S8        30.06S
FRONT ROYAL*   CLOUDY    54  52  94 CALM      30.06S
LURAY*         HVY RAIN  52  52 100 S3        30.07S
$$

VAZ048-049-060>072-079>083-011400-
CENTRAL AND SOUTH CENTRAL VIRGINIA

CITY           SKY/WX    TMP DP  RH WIND       PRES   REMARKS
RICHMOND       LGT RAIN  54  53  97 SE8       30.11F
CHESTERFIELD*  CLOUDY    54  43  66 SE7       30.13S
PETERSBURG*    DRIZZLE   55  55 100 SE5       30.12R
HANOVER        CLOUDY    54  51  90 CALM      30.13S
TAPPAHANNOCK*  CLOUDY    55  55 100 SE5       30.12F
QUINTON*       CLOUDY    55  54  97 SE7       30.11F
CHARLOTTSVILLE CLOUDY    53  51  93 S3        30.10R
GORDONSVILLE*  CLOUDY    52  52  99 CALM      30.10S FOG
ORANGE*        CLOUDY    52  52 100 CALM      30.13R
LOUISA*        CLOUDY    55  54  94 CALM      30.10S FOG
BUMPASS*       CLOUDY    52  51  98 E5        30.11S
FARMVILLE*     CLOUDY    55  55 100 CALM      30.08F FOG
CREWE*         CLOUDY    53  53 100 CALM      30.10S
FORT PICKETT*  NOT AVBL
CHASE CITY*    CLOUDY    56  54  94 SE5       30.09S
CLARKSVILLE*   CLOUDY    55  55 100 CALM      30.09R
SOUTH HILL*    CLOUDY    55  55  99 CALM      30.15F
LAWRENCEVILLE* CLOUDY    54  54 100 SE5       30.10S
EMPORIA*       LGT RAIN  54  52  94 E5        30.14R
$$

VAZ088>098-011400-
SOUTHEAST VIRGINIA

CITY           SKY/WX    TMP DP  RH WIND       PRES   REMARKS
NORFOLK        PTSUNNY   58  50  75 E9        30.12F
VIRGINIA BEACH CLOUDY    60  51  72 E7        30.13S
NORFOLK NAVAL  CLOUDY    59  52  77 SE9       30.14F
WEST POINT*    CLOUDY    55  54  94 E6        30.13F
SALUDA*        CLOUDY    55  52  90 SE5       30.12S
NEWPORT NEWS   CLOUDY    58  52  80 SE7       30.13S
LANGLEY AFB    PTSUNNY   58  52  79 SE8       30.13S
FORT EUSTIS    PTSUNNY   58  52  80 SE9       30.11S
WILLIAMSBURG*  FAIR      59  55  88 SE9       30.13S
HR EXEC AP*    PTSUNNY   59  54  82 SE8       30.15S
FRANKLIN*      CLOUDY    56  52  86 SE5       30.13F
US460-WAKEFLD  LGT RAIN  57  52  83 VRB3      30.11F
$$

VAZ020-022-025-037-045-011400-
WEST CENTRAL AND SOUTHWEST VIRGINIA

CITY           SKY/WX    TMP DP  RH WIND       PRES   REMARKS
STAUNTON*      RAIN      55  55 100 W5        30.12R
WAYNESBORO*    CLOUDY    51  50  96 MISG      30.09R
HOT SPRINGS VA RAIN      53  53 100 SW13      30.08F
LYNCHBURG      LGT RAIN  53  53 100 CALM      30.09F FOG
DANVILLE       CLOUDY    58  58 100 E3        30.06F FOG
SOUTH BOSTON*  CLOUDY    57  55  95 SE5       30.08F
MARTINSVILLE   LGT RAIN  54  54  99 N3        30.10R
ROANOKE        RAIN      55  54  96 N5        30.11S FOG
BLACKSBURG     LGT RAIN  55  55  98 N3        30.13R
DUBLIN*        HVY RAIN  56  56 100 NE7       30.10R
MARION*        RAIN      58  56  94 CALM      30.11R
HILLSVILLE*    PTSUNNY   57  57 100 S5        30.07F
RICHLANDS*     RAIN      57  57  99 CALM      30.07F VSB 1/2
WISE*          LGT RAIN  59  59 100 CALM      30.08R
ABINGDON*      LGT RAIN  61  60  94 S3        30.06S
$$

MDZ021>025-VAZ099-100-011400-
SOUTHERN MARYLAND AND THE DELMARVA PENINSULA

CITY           SKY/WX    TMP DP  RH WIND       PRES   REMARKS
PATUXENT RIVER LGT RAIN  53  49  86 SE12      30.13S
BAY BRIDGE APT NOT AVBL
LEONARDTOWN    CLOUDY    52  50  93 CALM      30.15R
DOVER          LGT RAIN  52  52 100 E10       30.15F FOG
GEORGETOWN     RAIN      51  50  96 E8        30.17S FOG
EASTON         RAIN     N/A N/A N/A SE6         N/A
CAMBRIDGE        N/A     50  46  87 SE5       30.14S
SALISBURY      LGT RAIN  51  50  96 E7        30.16S
OCEAN CITY     CLOUDY    52  49  89 SE7       30.17S
WALLOPS ISLAND CLOUDY    53  51  93 MISG      30.15F
ACCOMACK*      LGT RAIN  52 -17   5 SE8       30.13F
$$

NCZ012>017-030>032-011400-
NORTH CENTRAL AND EASTERN NORTH CAROLINA

CITY           SKY/WX    TMP DP  RH WIND       PRES   REMARKS
ROANOKE RAPIDS RAIN      55  54  94 CALM      30.13R
RALEIGH        CLOUDY    63  59  88 S8        30.09F
ELIZABETH CITY CLOUDY    60  55  83 E7        30.13S
AHOSKIE*       LGT RAIN  56  53  89 CALM      30.12F
EDENTON*       CLOUDY    64  62  94 CALM      30.13R
CURRITUCK*     CLOUDY    59  54  84 E5        30.14S
KILL DEVIL HLS CLOUDY    60  57  87 E3        30.12S
MANTEO         NOT AVBL
CAPE HATTERAS  CLOUDY    67  61  81 SE7       30.12S
TARBORO*       CLOUDY    59  55  88 CALM      30.14S
GOLDSBORO      CLOUDY    64  64 100 VRB3      30.10S
WASHINGTON     CLOUDY    61  56  84 CALM      30.13R
GREENVILLE     CLOUDY    61  57  88 CALM      30.14R
NEW BERN       MOSUNNY   66  61  84 CALM      30.14R
WILMINGTON     PTSUNNY   73  65  75 S8        30.11R
$$

VAZ048-011400-
ELSEWHERE

CITY           SKY/WX    TMP DP  RH WIND       PRES   REMARKS
HARRISBURG PA  LGT RAIN  47  43  86 SE14      30.12R FOG
BALTIMORE      LGT RAIN  50  49  96 SE7       30.13S FOG
ANNAPOLIS        N/A     52  50  93 MISG      30.13S FOG
ANDREWS AFB    LGT RAIN  52  50  95 SE8       30.12S FOG
PHILADELPHIA   LGT RAIN  47  42  83 E8        30.20S
HENDERSON NC   LGT RAIN  57  57 100 S7        30.09R
GREENSBORO     LGT RAIN  62  61  96 S10       30.05S FOG
ROCKY MOUNT    CLOUDY    60  57  89 SE5       30.12S FOG
$$

VAZ100-011400-
MARINE

STATION/POSITION TIME  TEMP    WIND        PRES    WAVE   SWELL
                       AIR SEA DIR/SP/G            HT/PER HT/PER
                 (UTC) (F)     (DEG/KT/KT) (MB)    (FT/S) (FT/S)
BRANDYWINE LGT   1200   50     120/ 11/ 12 1021.9F
CAPE MAY NJ      1200   50 57   80/  6/  8 1021.9S
LEWES DE         1200   51 55  120/  5/  6 1021.7F
15NM E FENWICK I 1250   51 51              1021.6F   4/ 9
OCEAN-CITY-INLET 1200   52 54  100/  6/ 10 1020.8F
WACHAPREAGUE VA  1200   54 58   80/  7/  9 1020.6F
THOMAS POINT MD  1300   51 57  130/ 13/ 14 1021.6S
GOOSES REEF MD   1300   52 57  140/  8/ 12 1021.6R   2/ 3
COVE POINT MD    1200   52     170/ 16/ 18 1020.7F
SOLOMONS ISLAND  1200   54 58  140/ 12/ 15   N/A
BISHOPS HEAD MD  1200   53 56  120/ 11/ 13 1020.0F
PINEY POINT MD   1200          150/ 14/ 15   N/A
POTOMAC MD       1300   54 58  150/ 12/ 14 1019.3F   2/ 3
CAMBRIDGE MD     1200   50 60  110/  6/  8 1020.3S
LEWISETTA VA     1200   53 59  150/  8/  9 1020.0F
RAPPAHANNOCK LGT 1200          100/ 12/ 13 1021.0F
STINGRAY PT      1300   56 60  140/ 12/ 16 1020.3F   2/ 2
YORK RVR RNG VA  1200   57     120/ 13/ 14 1019.6F
YORKTOWN VA      1200   57 61  130/  9/ 12 1020.0F
JAMESTOWN VA     1300   58 65  120/ 10/ 14   N/A     0
DOMINION TERM VA 1200   57     100/  9/ 12 1020.2F
KIPTOPEKE VA     1200      59  100/  7/ 10   N/A
CHES BAY BRIDGE  1200   56 58   80/ 10/ 12 1020.2F
CAPE HENRY VA    1200   56     110/  9/ 12   N/A
CHESAPEAKE LGHT  1200   54      60/ 10/ 10 1021.6R
WILLOUBY STN VA  1200   57     110/ 10/ 12 1021.2F
CAPE HENRY BUOY  1212      55                N/A     4/10   2/11
CAPE CHARLES BUO 1226      56                N/A     4/ 9   3/ 9
OFFSHORE WE BUOY 1221      54                N/A     5/10   5/10
64NM E OF VA BCH 1250   55 53   70/  8/ 10 1020.5F   5/11   5/11
DUCK PIER NC     1200   57 66   80/  6/  7 1019.9F
44100 DUCK FRF   1224      54                N/A     4/10   2/11
44056 DUCK FRF   1211      59                N/A     4/10   2/11
OREGON INLET NC  1200   61 61   90/  5/  7 1019.9F
HATTERAS NC      1200   65 66  110/  3/  5 1019.8S
DIAMOND SHLS NC  1250   73 73  180/ 12/ 14 1020.1S   5/10   5/10
CAPE LOOKOUT NC  1300   69     160/ 10/ 12C1F1C2F2C3F3C4F4C5F5C6F6C7F7C8M1C9!



USA.gov is the U.S. government's official web portal to all federal, state and local government web resources and services.